Weather History for Santa Fe, NM

Change the Weather History Date:

Sunday, March 30, 2014

  Actual Average Record
Temperature  
Mean Temperature 50 °F -  
Max Temperature 69 °F 0 °F 75 °F (2012)
Min Temperature 32 °F - 21 °F (2003)
Degree Days  
Heating Degree Days 15    
Moisture  
Dew Point 11 °F    
Average Humidity 23    
Maximum Humidity 52    
Minimum Humidity 10    
Precipitation  
Precipitation 0.00 in - - ()
Sea Level Pressure  
Sea Level Pressure 29.80 in    
Wind  
Wind Speed 8 mph (West)    
Max Wind Speed 29 mph    
Max Gust Speed 44 mph    
Visibility 10 miles    
Events      
Averages and records for this station are not official NWS values.
T = Trace of Precipitation, MM = Missing Value Source: NWS Daily Summary

Daily Weather History Graph

Daily Weather History Graph

Search for Another Location

Airport:

Trip Planner

Search our weather history database for the weather conditions in past years. The results will help you decide how hot, cold, wet, or windy it might be!

Date:

Astronomy

Mar. 30, 2014 Rise Set
Actual Time 6:53 AM MDT 7:24 PM MDT
Civil Twilight 6:28 AM MDT 7:50 PM MDT
Nautical Twilight 5:57 AM MDT 8:20 PM MDT
Astronomical Twilight 5:27 AM MDT 8:51 PM MDT
Moon 6:41 AM MDT (3/30) 7:38 PM MDT (3/30)
Length of Visible Light 13h 22m
Length of Day
12h 30m
Waning Crescent, 0% of the Moon is Illuminated
Mar 30
Waning Crescent
Mar 30
New
Apr 7
First Quarter
Apr 15
Full
Apr 22
Last Quarter

Hourly Weather History & Observations

Time (MDT) Temp. Windchill Dew Point Humidity Pressure Visibility Wind Dir Wind Speed Gust Speed Precip Events Conditions
12:53 AM 39.0 °F 35.7 °F 14.0 °F 36% 29.97 in 10.0 mi North 4.6 mph - N/A   Clear
1:53 AM 41.0 °F 39.0 °F 14.0 °F 33% 29.94 in 10.0 mi WNW 3.5 mph - N/A   Clear
2:53 AM 41.0 °F - 14.0 °F 33% 29.92 in 10.0 mi Calm Calm - N/A   Clear
3:53 AM 36.0 °F 33.3 °F 14.0 °F 41% 29.91 in 10.0 mi North 3.5 mph - N/A   Clear
4:53 AM 37.0 °F 32.4 °F 15.1 °F 41% 29.90 in 10.0 mi NNE 5.8 mph - N/A   Clear
5:53 AM 32.0 °F 25.6 °F 16.0 °F 52% 29.92 in 10.0 mi NNW 6.9 mph - N/A   Clear
6:53 AM 32.0 °F 24.8 °F 15.1 °F 50% 29.94 in 10.0 mi North 8.1 mph - N/A   Clear
7:53 AM 37.9 °F 34.4 °F 17.1 °F 43% 29.92 in 10.0 mi NNE 4.6 mph - N/A   Clear
8:53 AM 48.9 °F - 15.1 °F 26% 29.88 in 10.0 mi Calm Calm - N/A   Clear
9:53 AM 55.0 °F - 15.1 °F 21% 29.88 in 10.0 mi South 3.5 mph - N/A   Clear
10:53 AM 59.0 °F - 12.9 °F 16% 29.86 in 10.0 mi Variable 5.8 mph - N/A   Clear
11:53 AM 61.0 °F - 14.0 °F 16% 29.82 in 10.0 mi SSW 9.2 mph - N/A   Clear
12:53 PM 63.0 °F - 14.0 °F 15% 29.79 in 10.0 mi SW 10.4 mph - N/A   Clear
1:53 PM 66.0 °F - 14.0 °F 13% 29.73 in 10.0 mi SW 18.4 mph - N/A   Clear
2:53 PM 64.9 °F - 14.0 °F 14% 29.70 in 10.0 mi SW 13.8 mph 23.0 mph N/A   Clear
3:53 PM 68.0 °F - 10.9 °F 11% 29.68 in 10.0 mi SSW 13.8 mph 26.5 mph N/A   Clear
4:53 PM 64.0 °F - 12.0 °F 13% 29.66 in 10.0 mi WSW 9.2 mph - N/A   Mostly Cloudy
5:53 PM 64.0 °F - 10.9 °F 13% 29.65 in 10.0 mi SW 16.1 mph 25.3 mph N/A   Clear
6:53 PM 63.0 °F - 6.1 °F 11% 29.66 in 10.0 mi WSW 28.8 mph 43.7 mph N/A   Clear
7:53 PM 60.1 °F - 9.0 °F 13% 29.68 in 10.0 mi WSW 27.6 mph 41.4 mph N/A   Clear
8:53 PM 55.9 °F - -0.0 °F 10% 29.67 in 10.0 mi WSW 16.1 mph 28.8 mph N/A   Clear
9:53 PM 52.0 °F - -2.0 °F 11% 29.69 in 10.0 mi WSW 12.7 mph - N/A   Clear
10:53 PM 52.0 °F - 1.9 °F 13% 29.70 in 10.0 mi West 16.1 mph 25.3 mph N/A   Clear
11:53 PM 50.0 °F - 7.0 °F 18% 29.70 in 10.0 mi West 12.7 mph 21.9 mph N/A   Clear